Lexington Weather

Lexington, Massachusetts, USA

26°F
12/12/2019 5:33pm 
  • Lexington Conditions: Partly cloudy
  • Temperature: 25.5°F / -3.6°CColder 1.8°F than last hour.
  • Dew Point: 19.9°FIncreased 0.1°Fsince last hour.
  • Relative Humidity: 79%Increased 6.0% since last hour.
  • Wind: Wind from WSW WSW Calm, 10-min avg: 1 mph, gust: 2 mph
  • Barometer: 30.67 in Steady
  • Visibility: 10 miles
  • Snow Today: 0.0 in
  •   

Regional Weather Roundup
for Boston / Norton, MA

        
000
ASUS41 KBOX 102310
RWRBOX

REGIONAL WEATHER ROUNDUP
NATIONAL WEATHER SERVICE BOSTON/NORTON MA
600 PM EST TUE DEC 10 2019

NOTE:  "FAIR" INDICATES FEW OR NO CLOUDS BELOW 12,000 FEET WITH NO 
SIGNIFICANT WEATHER AND/OR OBSTRUCTIONS TO VISIBILITY.

MAZALL-110000-
EASTERN MASSACHUSETTS
  
CITY           SKY/WX    TMP DP  RH WIND       PRES   REMARKS
BOSTON         LGT RAIN  57  51  80 SW16      29.80R                  
BEVERLY        LGT RAIN  55  51  86 SW14      29.80R                  
LAWRENCE       LGT RAIN  53  50  89 SW12      29.81R                  
BEDFORD        LGT RAIN  54  50  86 SW10      29.81R                  
BLUE HILL        N/A     52  51  97 SW18G29   29.80R                  
NORWOOD        LGT RAIN  57  51  80 SW10      29.82R                  
MARSHFIELD     MOCLDY    55  55 100 SW9G21    29.83R                  
PLYMOUTH       CLOUDY    54  52  93 SW13      29.85R                  
TAUNTON        LGT RAIN  55  52  89 SW9       29.84R                  
NEW BEDFORD    LGT RAIN  54  52  93 SW13G21   29.85R FOG              
$$

MAZALL-110000-
CAPE COD AND THE ISLANDS
  
CITY           SKY/WX    TMP DP  RH WIND       PRES   REMARKS
FALMOUTH       DRIZZLE   52  52 100 W20       29.84R                  
HYANNIS        CLOUDY    54  51  90 SW14      29.84R FOG              
CHATHAM        LGT RAIN  51  51 100 SW10      29.86R FOG              
PROVINCETOWN   CLOUDY    51  50  96 SW17      29.84R                  
NANTUCKET      FOG       51  50  96 SW13      29.87R VSB 1/2          
MARTHAS VNYRD  LGT RAIN  55  53  93 SW14G22   29.87R FOG              
$$
 
MAZALL-110000-
CENTRAL AND WESTERN MASSACHUSETTS
  
CITY           SKY/WX    TMP DP  RH WIND       PRES   REMARKS
WORCESTER      LGT RAIN  46  43  89 W23G32    29.82R                  
FITCHBURG      LGT RAIN  49  43  80 W20G31    29.83R                  
ORANGE         LGT RAIN  45  37  73 NW6       29.86R                  
SPRINGFIELD    LGT RAIN  43  38  83 NW8       29.85R                  
WESTFIELD      LGT RAIN  42  36  79 NW5       29.86R                  
NORTH ADAMS    RAIN      36  32  85 W9        29.91R FOG     WCI  29  
PITTSFIELD     LGT SNOW  35  31  85 CALM      29.89R FOG              
$$
 
RIZALL-110000-
RHODE ISLAND
  
CITY           SKY/WX    TMP DP  RH WIND       PRES   REMARKS
PROVIDENCE     LGT RAIN  55  53  93 SW12      29.85R                  
NEWPORT        LGT RAIN  53  51  93 SW9       29.86R FOG              
BLOCK ISLAND   LGT RAIN  51  51 100 SW15      29.89R FOG              
SMITHFIELD     LGT RAIN  53  52  96 SW8       29.83R                  
WESTERLY       LGT RAIN  54  50  86 VRB7      29.88R FOG              
$$
 
CTZALL-110000-
CONNECTICUT
  
CITY           SKY/WX    TMP DP  RH WIND       PRES   REMARKS
BRADLEY INTL   CLOUDY    44  39  82 NW10      29.87R                  
HARTFORD       CLOUDY    54  50  86 VRB6      29.85R                  
BRIDGEPORT     CLOUDY    50  48  93 SW10      29.88R                  
DANBURY        LGT RAIN  52  48  86 W8        29.89R                  
GROTON         LGT RAIN  52  52 100 W8        29.87R FOG              
NEW HAVEN      CLOUDY    54  51  90 SW10      29.86S                  
CHESTER        CLOUDY    54  54 100 VRB5G13   29.86S FOG              
MERIDEN        CLOUDY    54  50  86 S6        29.85R                  
WILLIMANTIC    CLOUDY    53  51  93 SW6       29.85R                  
OXFORD         CLOUDY    51  49  92 W7        29.86S                  
$$

MEZ002-015-021-024-NHZ003-005-008-011-012-014-VTZ005-008-110000-
NORTHERN NEW ENGLAND
  
CITY           SKY/WX    TMP DP  RH WIND       PRES   REMARKS
PORTLAND ME    MOCLDY    54  48  80 SW7       29.73R                  
BANGOR ME      LGT RAIN  50  49  96 S5        29.68R                  
CONCORD NH     LGT RAIN  48  42  80 W16G23    29.80R                  
MANCHESTER NH  LGT RAIN  52  47  83 VRB7      29.79R                  
NASHUA NH      LGT RAIN  50  50 100 W13G25    29.82R                  
PORTSMOUTH NH  LGT RAIN  52  50  92 SW9       29.76R                  
JAFFREY NH     LGT RAIN  44  40  85 VRB3      29.82R                  
KEENE NH       LGT RAIN  44  37  76 N7        29.85R                  
BURLINGTON VT  CLOUDY    41  24  51 W12       29.88R                  
MT. WASHINGTON SNOWSHWR  19  19 100 W69G76      N/A  VSB 0   WCI  -6  
$$

NYZ052-076-110000-
EASTERN NEW YORK
  
CITY           SKY/WX    TMP DP  RH WIND       PRES   REMARKS
ALBANY         CLOUDY    40  31  70 NW14G23   29.96R                  
NEW YORK CITY  CLOUDY    56  48  74 W16G23    29.90R                  
$$
 
ANZALL-110000-
MARINE OBSERVATIONS
  
STATION/POSITION TIME  TEMP    WIND        PRES    VSBY  WAVE
                       AIR SEA DIR/SP/G                  HT/PER
                 (UTC) (F)     (DEG/KT/KT) (MB)    (MI)  (FT/S)
BOSTON BUOY      2250   53 48  210/ 16/ 17 1008.5R         3/11
BUZZARDS BAY     2200   51     230/ 20/ 21 1010.6R
NANTUCKET SOUND  2240      43                N/A           2/ 3
MASS BAY-STELLWA 2204   49 47  230/ 10/ 12 1005.9R  1 5/8  5/11
ISLE OF SHOALS   2200   53     220/ 20/ 20 1006.4R
S OF BLOCK IS    2300      53                N/A          12/11
$$

......................KEY.........................
  SKY/WX - SKY CONDITION/PRESENT WEATHER
  TMP    - TEMPERATURE IN FAHRENHEIT
  DWPT   - DEWPOINT IN FAHRENHEIT
  RH     - RELATIVE HUMIDITY IN PERCENT
  WIND   - DIRECTION AND SPEED IN MPH
  PRES   - MEAN SEA LEVEL PRESSURE IN INCHES OF HG
  WCI    - WIND CHILL INDEX
  VSB    - VISIBILITY IN MILES
  HX     - HEAT INDEX
  TC     - TEMPERATURE IN CELSIUS
  VRB    - VARIABLE WIND DIRECTION
  N/A    - NOT AVAILABLE
  
      

Other recent Regional Weather Roundups

Thu Dec 12, 5:10pm

Thu Dec 12, 5:00pm

Thu Dec 12, 4:10pm

Thu Dec 12, 4:01pm

Thu Dec 12, 3:10pm

Thu Dec 12, 3:00pm

Thu Dec 12, 2:10pm

Thu Dec 12, 2:01pm

Thu Dec 12, 1:10pm

Thu Dec 12, 1:00pm

Thu Dec 12, 12:10pm

Thu Dec 12, 12:00pm

Thu Dec 12, 11:10am

Thu Dec 12, 11:00am

Thu Dec 12, 10:10am

Thu Dec 12, 8:10am

Thu Dec 12, 8:00am

Thu Dec 12, 7:10am

Thu Dec 12, 7:00am

Thu Dec 12, 6:10am

Thu Dec 12, 6:00am

Thu Dec 12, 5:10am

Thu Dec 12, 5:00am

Thu Dec 12, 4:10am

Thu Dec 12, 4:00am

Thu Dec 12, 3:10am

Thu Dec 12, 3:00am

Thu Dec 12, 2:10am

Thu Dec 12, 2:00am

Thu Dec 12, 1:10am

Thu Dec 12, 1:00am

Thu Dec 12, 12:10am

Thu Dec 12, 12:00am

Wed Dec 11, 11:10pm

Wed Dec 11, 11:00pm

Wed Dec 11, 10:10pm

Wed Dec 11, 10:00pm

Wed Dec 11, 9:10pm

Wed Dec 11, 9:00pm

Wed Dec 11, 8:10pm

Wed Dec 11, 8:00pm

Wed Dec 11, 7:10pm

Wed Dec 11, 7:00pm

Wed Dec 11, 6:10pm

Wed Dec 11, 6:00pm

Wed Dec 11, 5:10pm

Wed Dec 11, 5:01pm

Wed Dec 11, 4:10pm

Wed Dec 11, 4:00pm

Wed Dec 11, 3:10pm

Wed Dec 11, 3:01pm

Wed Dec 11, 2:10pm

Wed Dec 11, 2:00pm

Wed Dec 11, 1:10pm

Wed Dec 11, 1:00pm

Wed Dec 11, 12:10pm

Wed Dec 11, 12:00pm

Wed Dec 11, 11:10am

Wed Dec 11, 11:00am

Wed Dec 11, 10:10am

Wed Dec 11, 10:00am

Wed Dec 11, 9:10am

Wed Dec 11, 9:00am

Wed Dec 11, 8:10am

Wed Dec 11, 8:00am

Wed Dec 11, 7:10am

Wed Dec 11, 7:00am

Wed Dec 11, 6:10am

Wed Dec 11, 6:00am

Wed Dec 11, 5:10am

Wed Dec 11, 5:00am

Wed Dec 11, 4:10am

Wed Dec 11, 4:00am

Wed Dec 11, 3:10am

Wed Dec 11, 3:01am

Wed Dec 11, 2:10am

Wed Dec 11, 2:01am

Wed Dec 11, 1:10am

Wed Dec 11, 1:00am

Wed Dec 11, 12:10am

Wed Dec 11, 12:00am

Tue Dec 10, 11:10pm

Tue Dec 10, 11:00pm

Tue Dec 10, 10:10pm

Tue Dec 10, 10:00pm

Tue Dec 10, 9:10pm

Tue Dec 10, 9:01pm

Tue Dec 10, 8:10pm

Tue Dec 10, 8:00pm

Tue Dec 10, 7:10pm

Tue Dec 10, 7:01pm

Tue Dec 10, 6:01pm

Tue Dec 10, 5:10pm

Tue Dec 10, 5:00pm

Tue Dec 10, 4:10pm

Tue Dec 10, 4:01pm

Tue Dec 10, 3:10pm

Tue Dec 10, 3:01pm

Tue Dec 10, 2:10pm

Tue Dec 10, 2:01pm

Tue Dec 10, 1:10pm

Tue Dec 10, 1:00pm

Tue Dec 10, 12:10pm

Tue Dec 10, 12:00pm

Tue Dec 10, 11:10am

Tue Dec 10, 11:00am

Tue Dec 10, 10:10am

Tue Dec 10, 10:00am

Tue Dec 10, 9:10am

Tue Dec 10, 9:01am

Tue Dec 10, 8:10am

Tue Dec 10, 8:00am

Tue Dec 10, 7:10am

Tue Dec 10, 7:00am

Tue Dec 10, 6:10am

Tue Dec 10, 6:00am

Tue Dec 10, 5:10am

Tue Dec 10, 5:00am

Tue Dec 10, 4:10am

Tue Dec 10, 4:00am

Tue Dec 10, 3:10am

Tue Dec 10, 3:00am

Tue Dec 10, 2:10am

Tue Dec 10, 2:01am

Tue Dec 10, 1:10am

Tue Dec 10, 1:00am

Tue Dec 10, 12:10am

Tue Dec 10, 12:01am

Mon Dec 9, 11:10pm

Mon Dec 9, 11:01pm

Mon Dec 9, 10:10pm

Mon Dec 9, 10:00pm

Mon Dec 9, 9:10pm

Mon Dec 9, 9:01pm

Mon Dec 9, 8:10pm

Mon Dec 9, 8:01pm

Mon Dec 9, 7:10pm

Mon Dec 9, 7:00pm

Mon Dec 9, 6:10pm

Mon Dec 9, 6:00pm

Meta data:

ID: 2312baf6-d213-43b1-bae3-e8c93cb2c7e2
Link: https://api.weather.gov/products/2312baf6-d213-43b1-bae3-e8c93cb2c7e2